| time (UTC) | temp F | wind direction | speed MPH | gust MPH | rain 1hr in | rain 24hr in | rain mn in | humidity % | barometer mb |
| 20260507023103 | 78 | 94 | 18.0 | 29.0 | 0.00 | 0.00 | 0.00 | 24 | 1021.4 |
| 20260507021555 | 77 | 72 | 18.0 | 28.0 | 0.00 | 0.00 | 0.00 | 24 | 1021.6 |
| 20260507020051 | 76 | 81 | 20.0 | 28.0 | 0.00 | 0.00 | 0.00 | 25 | 1021.9 |
| 20260507014558 | 76 | 77 | 18.0 | 33.0 | 0.00 | 0.00 | 0.00 | 25 | 1021.7 |
| 20260507013109 | 75 | 81 | 21.0 | 29.0 | 0.00 | 0.00 | 0.00 | 26 | 1021.9 |
| 20260507011547 | 74 | 83 | 17.0 | 31.0 | 0.00 | 0.00 | 0.00 | 27 | 1021.7 |
| 20260507010048 | 73 | 85 | 21.0 | 33.0 | 0.00 | 0.00 | 0.00 | 27 | 1022.0 |
| 20260507004550 | 73 | 95 | 18.0 | 28.0 | 0.00 | 0.00 | 0.00 | 27 | 1021.8 |
| 20260507003101 | 73 | 83 | 13.0 | 24.0 | 0.00 | 0.00 | 0.00 | 28 | 1021.7 |
| 20260507001657 | 71 | 110 | 17.0 | 26.0 | 0.00 | 0.00 | 0.00 | 29 | 1021.6 |
| 20260507000300 | 71 | 85 | 15.0 | 23.0 | 0.00 | 0.00 | 0.00 | 30 | 1021.5 |
| 20260507000228 | 71 | 85 | 15.0 | 23.0 | 0.00 | 0.00 | 0.00 | 30 | 1021.5 |
| 20260506234554 | 70 | 94 | 15.0 | 26.0 | 0.00 | 0.00 | 0.00 | 31 | 1021.1 |
| 20260506233120 | 69 | 109 | 13.0 | 23.0 | 0.00 | 0.00 | 0.00 | 31 | 1020.9 |
| 20260506231629 | 69 | 83 | 11.0 | 19.0 | 0.00 | 0.00 | 0.00 | 32 | 1020.9 |
| 20260506231550 | 69 | 83 | 11.0 | 19.0 | 0.00 | 0.00 | 0.00 | 32 | 1020.9 |
| 20260506230131 | 68 | 93 | 9.0 | 18.0 | 0.00 | 0.00 | 0.00 | 32 | 1020.8 |
| 20260506224614 | 67 | 112 | 7.0 | 15.0 | 0.00 | 0.00 | 0.00 | 33 | 1020.6 |
| 20260506223103 | 67 | 114 | 5.0 | 13.0 | 0.00 | 0.00 | 0.00 | 33 | 1020.3 |
| 20260506221552 | 67 | 117 | 8.0 | 15.0 | 0.00 | 0.00 | 0.00 | 33 | 1020.1 |
| 20260506220117 | 67 | 106 | 8.0 | 15.0 | 0.00 | 0.00 | 0.00 | 33 | 1019.7 |
| 20260506214609 | 68 | 89 | 11.0 | 15.0 | 0.00 | 0.00 | 0.00 | 33 | 1019.5 |
| 20260506213048 | 68 | 99 | 9.0 | 19.0 | 0.00 | 0.00 | 0.00 | 32 | 1019.2 |
| 20260506211548 | 68 | 100 | 11.0 | 18.0 | 0.00 | 0.00 | 0.00 | 32 | 1019.2 |
| 20260506210047 | 69 | 87 | 11.0 | 20.0 | 0.00 | 0.00 | 0.00 | 32 | 1019.1 |
| 20260506204548 | 69 | 89 | 11.0 | 20.0 | 0.00 | 0.00 | 0.00 | 32 | 1018.8 |
| 20260506203049 | 69 | 85 | 12.0 | 19.0 | 0.00 | 0.00 | 0.00 | 32 | 1019.0 |
| 20260506201549 | 69 | 108 | 9.0 | 15.0 | 0.00 | 0.00 | 0.00 | 32 | 1019.0 |
| 20260506200135 | 69 | 115 | 11.0 | 17.0 | 0.00 | 0.00 | 0.00 | 33 | 1018.9 |
| 20260506194550 | 70 | 135 | 8.0 | 13.0 | 0.00 | 0.00 | 0.00 | 33 | 1018.7 |
| 20260506193052 | 71 | 118 | 9.0 | 16.0 | 0.00 | 0.00 | 0.00 | 33 | 1018.7 |
| 20260506191552 | 71 | 109 | 9.0 | 19.0 | 0.00 | 0.00 | 0.00 | 33 | 1018.7 |
| 20260506190049 | 72 | 133 | 8.0 | 18.0 | 0.00 | 0.00 | 0.00 | 32 | 1018.6 |
| 20260506184552 | 72 | 121 | 10.0 | 18.0 | 0.00 | 0.00 | 0.00 | 32 | 1018.5 |
| 20260506183053 | 72 | 101 | 9.0 | 16.0 | 0.00 | 0.00 | 0.00 | 32 | 1018.4 |
| 20260506181550 | 72 | 98 | 8.0 | 14.0 | 0.00 | 0.00 | 0.00 | 33 | 1018.4 |
| 20260506180053 | 72 | 105 | 10.0 | 16.0 | 0.00 | 0.00 | 0.00 | 33 | 1018.3 |
| 20260506174556 | 73 | 107 | 10.0 | 17.0 | 0.00 | 0.00 | 0.00 | 33 | 1018.0 |
| 20260506173106 | 73 | 85 | 9.0 | 19.0 | 0.00 | 0.00 | 0.00 | 33 | 1018.1 |
| 20260506171558 | 73 | 95 | 11.0 | 21.0 | 0.00 | 0.00 | 0.00 | 33 | 1018.1 |
| 20260506170052 | 74 | 88 | 12.0 | 22.0 | 0.00 | 0.00 | 0.00 | 32 | 1018.1 |
| 20260506164551 | 74 | 99 | 14.0 | 23.0 | 0.00 | 0.00 | 0.00 | 32 | 1018.1 |
| 20260506163052 | 75 | 113 | 14.0 | 26.0 | 0.00 | 0.00 | 0.00 | 32 | 1018.2 |
| 20260506161557 | 75 | 97 | 12.0 | 24.0 | 0.00 | 0.00 | 0.00 | 32 | 1018.1 |
| 20260506160107 | 76 | 81 | 13.0 | 19.0 | 0.00 | 0.00 | 0.00 | 32 | 1018.2 |
| 20260506154552 | 76 | 93 | 12.0 | 25.0 | 0.00 | 0.00 | 0.00 | 32 | 1018.1 |
| 20260506153046 | 76 | 83 | 12.0 | 20.0 | 0.00 | 0.00 | 0.00 | 32 | 1017.8 |
| 20260506151554 | 76 | 92 | 9.0 | 18.0 | 0.00 | 0.00 | 0.00 | 33 | 1017.8 |
| 20260506150048 | 77 | 88 | 10.0 | 15.0 | 0.00 | 0.00 | 0.00 | 33 | 1017.9 |
| 20260506144553 | 77 | 93 | 12.0 | 20.0 | 0.00 | 0.00 | 0.00 | 33 | 1018.0 |
| 20260506143054 | 78 | 94 | 15.0 | 24.0 | 0.00 | 0.00 | 0.00 | 32 | 1017.8 |
| 20260506141552 | 78 | 70 | 14.0 | 21.0 | 0.00 | 0.00 | 0.00 | 32 | 1018.0 |
| 20260506140051 | 78 | 94 | 12.0 | 20.0 | 0.00 | 0.00 | 0.00 | 32 | 1017.7 |
| 20260506134614 | 78 | 95 | 10.0 | 18.0 | 0.00 | 0.00 | 0.00 | 33 | 1017.6 |
| 20260506133051 | 78 | 101 | 10.0 | 16.0 | 0.00 | 0.00 | 0.00 | 34 | 1017.5 |
| 20260506131605 | 78 | 122 | 10.0 | 16.0 | 0.00 | 0.00 | 0.00 | 34 | 1017.5 |
| 20260506130050 | 77 | 104 | 8.0 | 15.0 | 0.00 | 0.00 | 0.00 | 35 | 1017.3 |
| 20260506124551 | 78 | 98 | 9.0 | 14.0 | 0.00 | 0.00 | 0.00 | 35 | 1017.3 |
| 20260506123142 | 77 | 89 | 6.0 | 13.0 | 0.00 | 0.00 | 0.00 | 36 | 1017.2 |
| 20260506121601 | 78 | 127 | 5.0 | 11.0 | 0.00 | 0.00 | 0.00 | 37 | 1017.0 |
| 20260506120053 | 78 | 108 | 5.0 | 9.0 | 0.00 | 0.00 | 0.00 | 37 | 1016.9 |
| 20260506114552 | 78 | 93 | 5.0 | 10.0 | 0.00 | 0.00 | 0.00 | 37 | 1016.8 |
| 20260506113047 | 79 | 111 | 7.0 | 11.0 | 0.00 | 0.00 | 0.00 | 38 | 1016.7 |
| 20260506111604 | 79 | 169 | 4.0 | 12.0 | 0.00 | 0.00 | 0.00 | 38 | 1016.7 |
| 20260506110051 | 79 | 112 | 6.0 | 12.0 | 0.00 | 0.00 | 0.00 | 38 | 1016.4 |
| 20260506104551 | 79 | 96 | 4.0 | 10.0 | 0.00 | 0.00 | 0.00 | 38 | 1016.1 |
| 20260506103045 | 80 | 111 | 5.0 | 10.0 | 0.00 | 0.00 | 0.00 | 37 | 1016.0 |
| 20260506101546 | 80 | 147 | 5.0 | 10.0 | 0.00 | 0.00 | 0.00 | 37 | 1015.7 |
| 20260506100049 | 81 | 92 | 5.0 | 10.0 | 0.00 | 0.00 | 0.00 | 36 | 1015.5 |
| 20260506094550 | 82 | 129 | 5.0 | 13.0 | 0.00 | 0.00 | 0.00 | 36 | 1015.5 |
| 20260506093052 | 82 | 112 | 9.0 | 16.0 | 0.00 | 0.00 | 0.00 | 35 | 1015.3 |
| 20260506091549 | 83 | 101 | 8.0 | 15.0 | 0.00 | 0.00 | 0.00 | 34 | 1015.2 |
| 20260506090053 | 84 | 94 | 11.0 | 17.0 | 0.00 | 0.00 | 0.00 | 33 | 1015.2 |
| 20260506084550 | 84 | 97 | 12.0 | 19.0 | 0.00 | 0.00 | 0.00 | 33 | 1015.0 |
| 20260506083109 | 85 | 58 | 9.0 | 17.0 | 0.00 | 0.00 | 0.00 | 32 | 1014.9 |
| 20260506081550 | 85 | 70 | 10.0 | 16.0 | 0.00 | 0.00 | 0.00 | 33 | 1014.7 |
| 20260506073053 | 87 | 106 | 11.0 | 19.0 | 0.00 | 0.00 | 0.00 | 31 | 1014.6 |
| 20260506071553 | 87 | 66 | 12.0 | 19.0 | 0.00 | 0.00 | 0.00 | 31 | 1014.5 |
| 20260506061549 | 87 | 143 | 10.0 | 19.0 | 0.00 | 0.00 | 0.00 | 31 | 1014.8 |
| 20260506044648 | 86 | 63 | 8.0 | 19.0 | 0.00 | 0.00 | 0.00 | 31 | 1015.7 |
| 20260506043045 | 84 | 117 | 8.0 | 23.0 | 0.00 | 0.00 | 0.00 | 30 | 1015.8 |
| 20260506041552 | 85 | 86 | 10.0 | 18.0 | 0.00 | 0.00 | 0.00 | 31 | 1016.0 |
| 20260506040047 | 84 | 110 | 8.0 | 19.0 | 0.00 | 0.00 | 0.00 | 30 | 1016.4 |
| 20260506034551 | 83 | 100 | 11.0 | 18.0 | 0.00 | 0.00 | 0.00 | 31 | 1016.6 |
| 20260506033047 | 82 | 87 | 15.0 | 21.0 | 0.00 | 0.00 | 0.00 | 30 | 1016.7 |
| 20260506031544 | 82 | 81 | 9.0 | 22.0 | 0.00 | 0.00 | 0.00 | 29 | 1016.9 |
| 20260506030047 | 81 | 79 | 13.0 | 20.0 | 0.00 | 0.00 | 0.00 | 29 | 1017.4 |
| 20260506024550 | 80 | 94 | 12.0 | 19.0 | 0.00 | 0.00 | 0.00 | 30 | 1017.7 |